Monroe, WI

2:09 AM CST on December 16, 2019 (GMT -0600)
Monroe Municipal

Weather History for KEFT - November, 2019

Change the Weather History Date:

Monday, November 18, 2019

  Actual Average Record
Temperature  
Mean Temperature 32 °F -  
Max Temperature 33 °F 0 °F 69 °F (1999)
Min Temperature 30 °F - 6 °F (2014)
Degree Days  
Heating Degree Days 34    
Moisture  
Dew Point 32 °F    
Average Humidity 97    
Maximum Humidity 100    
Minimum Humidity 92    
Precipitation  
Precipitation 0.00 in - - ()
Sea Level Pressure  
Sea Level Pressure 29.76 in    
Wind  
Wind Speed 6 mph (WSW)    
Max Wind Speed 10 mph    
Max Gust Speed -    
Visibility 8 miles    
Events Fog    
Averages and records for this station are not official NWS values.
T = Trace of Precipitation, MM = Missing Value Source: NWS Daily Summary

Daily Weather History Graph

Daily Weather History Graph

Search for Another Location

Airport or City:

Astronomy

Nov. 18, 2019 Rise Set
Actual Time 6:53 AM CST 4:33 PM CST
Civil Twilight 6:22 AM CST 5:03 PM CST
Nautical Twilight 5:48 AM CST 5:38 PM CST
Astronomical Twilight 5:14 AM CST 6:11 PM CST
Moon 10:18 PM CST (11/18) 12:25 PM CST (11/18)
Length of Visible Light 10h 41m
Length of Day
9h 40m
Waning Gibbous, 63% of the Moon is Illuminated
Nov 18
Waning Gibbous
Nov 19
Last Quarter
Nov 26
New
Dec 4
First Quarter
Dec 11
Full

Hourly Weather History & Observations

Time (CST) Temp. Windchill Dew Point Humidity Pressure Visibility Wind Dir Wind Speed Gust Speed Precip Events Conditions
12:15 AM 32.9 °F 25.9 °F 32.9 °F 100% 29.80 in 0.5 mi WNW 8.1 mph - N/A Fog Fog
12:35 AM 32.9 °F 24.7 °F 32.9 °F 100% 29.80 in 0.8 mi WNW 10.4 mph - N/A   Overcast
12:55 AM 32.9 °F 25.9 °F 32.9 °F 100% 29.79 in 0.8 mi WNW 8.1 mph - N/A   Overcast
1:15 AM 33.1 °F 25.5 °F 33.1 °F 100% 29.79 in 1.0 mi WNW 9.2 mph - N/A   Overcast
1:35 AM 33.3 °F 25.7 °F 33.3 °F 100% 29.80 in 1.8 mi WNW 9.2 mph - N/A   Overcast
1:55 AM 33.3 °F 25.7 °F 33.3 °F 100% 29.80 in 1.8 mi WNW 9.2 mph - N/A   Light Drizzle
2:15 AM 33.4 °F 26.6 °F 33.4 °F 100% 29.80 in 2.5 mi WNW 8.1 mph - N/A   Light Drizzle
2:35 AM 33.4 °F 26.6 °F 33.4 °F 100% 29.79 in 4.0 mi WNW 8.1 mph - N/A   Overcast
2:55 AM 33.6 °F 26.8 °F 33.6 °F 100% 29.79 in 7.0 mi WNW 8.1 mph - N/A   Overcast
3:15 AM 33.8 °F 27.7 °F 33.8 °F 100% 29.78 in 7.0 mi WNW 6.9 mph - N/A   Overcast
3:35 AM 33.8 °F 29.6 °F 32.9 °F 96% 29.78 in 10.0 mi WNW 4.6 mph - N/A   Overcast
3:55 AM 33.8 °F 28.6 °F 32.9 °F 96% 29.78 in 7.0 mi NW 5.8 mph - N/A   Overcast
4:15 AM 33.6 °F 27.5 °F 32.9 °F 97% 29.79 in 7.0 mi NW 6.9 mph - N/A   Overcast
4:35 AM 33.4 °F 30.4 °F 32.5 °F 96% 29.79 in 10.0 mi NW 3.5 mph - N/A   Overcast
4:55 AM 33.4 °F 30.4 °F 32.0 °F 94% 29.78 in 10.0 mi NW 3.5 mph - N/A   Overcast
5:15 AM 33.8 °F 29.6 °F 31.8 °F 92% 29.78 in 10.0 mi NW 4.6 mph - N/A   Overcast
5:35 AM 33.3 °F 30.2 °F 32.0 °F 95% 29.78 in 10.0 mi WNW 3.5 mph - N/A   Overcast
5:55 AM 33.4 °F 29.1 °F 31.6 °F 93% 29.78 in 10.0 mi WNW 4.6 mph - N/A   Overcast
6:15 AM 33.3 °F 27.9 °F 31.6 °F 94% 29.79 in 10.0 mi NW 5.8 mph - N/A   Overcast
6:35 AM 33.3 °F 30.2 °F 31.5 °F 93% 29.80 in 10.0 mi NW 3.5 mph - N/A   Overcast
7:15 AM 32.9 °F - 32.0 °F 96% 29.80 in 10.0 mi Calm Calm - N/A   Overcast
7:35 AM 33.1 °F 27.7 °F 31.6 °F 94% 29.81 in 10.0 mi WNW 5.8 mph - N/A   Overcast
7:55 AM 32.9 °F 28.5 °F 31.6 °F 95% 29.81 in 10.0 mi WNW 4.6 mph - N/A   Overcast
8:15 AM 33.1 °F 30.0 °F 31.1 °F 92% 29.81 in 10.0 mi NW 3.5 mph - N/A   Overcast
8:35 AM 33.1 °F - 31.5 °F 94% 29.82 in 10.0 mi Calm Calm - N/A   Overcast
9:15 AM 33.3 °F 30.2 °F 31.6 °F 94% 29.80 in 10.0 mi West 3.5 mph - N/A   Overcast
9:35 AM 33.1 °F - 31.5 °F 94% 29.79 in 10.0 mi Calm Calm - N/A   Overcast
9:55 AM 33.3 °F 30.2 °F 31.8 °F 94% 29.79 in 10.0 mi West 3.5 mph - N/A   Overcast
10:35 AM 33.3 °F 30.2 °F 31.5 °F 93% 29.78 in 10.0 mi West 3.5 mph - N/A   Overcast
10:55 AM 33.1 °F 30.0 °F 31.6 °F 94% 29.78 in 10.0 mi West 3.5 mph - N/A   Overcast
11:15 AM 33.1 °F 30.0 °F 31.1 °F 92% 29.77 in 10.0 mi West 3.5 mph - N/A   Overcast
11:35 AM 32.9 °F - 31.6 °F 95% 29.76 in 10.0 mi Calm Calm - N/A   Overcast
11:55 AM 32.9 °F 26.7 °F 31.6 °F 95% 29.76 in 10.0 mi West 6.9 mph - N/A   Overcast
12:35 PM 33.1 °F 27.7 °F 31.6 °F 94% 29.76 in 10.0 mi WSW 5.8 mph - N/A   Overcast
12:55 PM 32.9 °F 27.5 °F 31.5 °F 94% 29.75 in 10.0 mi West 5.8 mph - N/A   Overcast
1:15 PM 32.9 °F 28.5 °F 31.5 °F 94% 29.75 in 10.0 mi SW 4.6 mph - N/A   Overcast
1:35 PM 33.1 °F 26.1 °F 32.0 °F 96% 29.75 in 10.0 mi WSW 8.1 mph - N/A   Overcast
1:55 PM 32.9 °F 25.9 °F 31.8 °F 96% 29.74 in 10.0 mi WSW 8.1 mph - N/A   Overcast
2:15 PM 32.9 °F 27.5 °F 31.6 °F 95% 29.74 in 10.0 mi SW 5.8 mph - N/A   Overcast
2:35 PM 32.7 °F 25.7 °F 32.0 °F 97% 29.74 in 10.0 mi WSW 8.1 mph - N/A   Overcast
2:55 PM 32.4 °F 29.1 °F 31.8 °F 98% 29.74 in 10.0 mi SW 3.5 mph - N/A   Overcast
3:15 PM 32.4 °F 29.1 °F 31.8 °F 98% 29.73 in 10.0 mi SW 3.5 mph - N/A   Overcast
3:35 PM 32.4 °F 27.9 °F 31.5 °F 96% 29.73 in 10.0 mi WSW 4.6 mph - N/A   Overcast
3:55 PM 32.4 °F 29.1 °F 31.6 °F 97% 29.73 in 10.0 mi SSW 3.5 mph - N/A   Overcast
4:15 PM 32.4 °F 29.1 °F 31.6 °F 97% 29.73 in 10.0 mi South 3.5 mph - N/A   Overcast
4:35 PM 32.4 °F 26.9 °F 31.6 °F 97% 29.73 in 10.0 mi SSW 5.8 mph - N/A   Overcast
4:55 PM 32.4 °F 27.9 °F 31.8 °F 98% 29.73 in 10.0 mi SW 4.6 mph - N/A   Overcast
5:15 PM 32.4 °F 27.9 °F 32.0 °F 99% 29.74 in 10.0 mi SW 4.6 mph - N/A   Overcast
5:35 PM 32.2 °F 25.8 °F 32.0 °F 99% 29.74 in 10.0 mi WSW 6.9 mph - N/A   Overcast
5:55 PM 32.0 °F 26.4 °F 31.8 °F 99% 29.74 in 10.0 mi SW 5.8 mph - N/A   Overcast
6:15 PM 32.0 °F 27.5 °F 31.8 °F 99% 29.74 in 10.0 mi SW 4.6 mph - N/A   Overcast
6:35 PM 32.0 °F 27.5 °F 31.8 °F 99% 29.74 in 7.0 mi SW 4.6 mph - N/A   Overcast
6:55 PM 32.0 °F 27.5 °F 31.8 °F 99% 29.74 in 10.0 mi SSW 4.6 mph - N/A   Overcast
7:15 PM 32.0 °F 28.7 °F 31.8 °F 99% 29.74 in 10.0 mi SW 3.5 mph - N/A   Overcast
7:35 PM 32.0 °F 26.4 °F 31.8 °F 99% 29.74 in 10.0 mi SW 5.8 mph - N/A   Overcast
7:55 PM 32.0 °F - 31.6 °F 99% 29.73 in 10.0 mi Calm Calm - N/A   Overcast
8:15 PM 32.0 °F - 31.6 °F 99% 29.72 in 10.0 mi Calm Calm - N/A   Overcast
8:35 PM 31.8 °F 28.5 °F 31.1 °F 97% 29.72 in 10.0 mi SSE 3.5 mph - N/A   Overcast
8:55 PM 31.6 °F - 31.1 °F 98% 29.72 in 10.0 mi Calm Calm - N/A   Overcast
9:15 PM 31.8 °F 28.5 °F 31.3 °F 98% 29.73 in 10.0 mi SSW 3.5 mph - N/A   Overcast
9:35 PM 31.5 °F 28.1 °F 31.1 °F 99% 29.73 in 7.0 mi SSW 3.5 mph - N/A   Overcast
9:55 PM 31.5 °F 26.8 °F 31.1 °F 99% 29.73 in 5.0 mi South 4.6 mph - N/A   Overcast
10:15 PM 31.1 °F 26.4 °F 30.9 °F 99% 29.73 in 5.0 mi South 4.6 mph - N/A   Overcast
10:35 PM 30.9 °F 25.2 °F 30.7 °F 99% 29.74 in 7.0 mi SW 5.8 mph - N/A   Overcast
10:55 PM 31.1 °F 24.5 °F 31.1 °F 100% 29.75 in 5.0 mi SW 6.9 mph - N/A   Overcast
11:15 PM 31.1 °F 23.7 °F 31.1 °F 100% 29.73 in 5.0 mi SW 8.1 mph - N/A   Overcast